Terminal Aerodrome Forecast
Issued by NWS Mt. Holly, NJ

Home | Current Version | Previous Version | Text Only | Print | Product List | Glossary On
Versions: 1 2 3 4 5 6 7 8 9 10 11 12 13 14 15 16 17 18 19 20 21 22 23 24 25 26 27 28 29 30 31 32 33 34 35 36 37 38
000
FTUS41 KPHI 172300
TAFPHL
TAF
KPHL 172320Z 1800/1906 29012G20KT P6SM SCT040
      TEMPO 1802/1806 BKN040
     FM181500 30016G25KT P6SM SCT045
     FM182300 30010KT P6SM FEW050=

USA.gov is the U.S. government's official web portal to all federal, state and local government web resources and services.